#timestamp,LO_Frequency,Hit,StdDev 
1525525215.2,286046999.6,N
1525525235.1,286046998.2,N
1525525236.0,286046998.2,N
1525525255.8,286047001.0,N
1525525275.6,286047000.8,N
1525525295.5,286046998.1,N
1525525315.3,286046996.6,N
1525525335.1,286046996.6,N
1525525355.9,286046998.8,N
1525525375.7,286046998.8,N
1525525395.6,286046998.8,N
1525525415.4,286046999.4,N
1525525435.2,286046998.2,N
1525525455.1,286047000.3,N
1525525456.0,286047000.3,N
1525525475.8,286047001.0,N
1525525495.7,286047001.1,N
1525525515.5,286047000.4,N
1525525535.3,286047000.7,N
1525525555.2,286047000.4,N
1525525575.0,286047000.7,N
1525525575.9,286047000.7,N
1525525595.7,286047000.9,N
1525525615.6,286046999.7,N
1525525635.4,286047002.4,N
1525525655.3,286046999.7,N
1525525675.1,286046999.7,N
1525525676.0,286046999.7,N
1525525695.8,286047003.7,N
1525525715.7,286047002.2,N
1525525735.5,286047002.3,N
1525525755.4,286047002.4,N
1525525775.2,286047001.0,N
1525525795.0,286047000.7,N
1525525795.9,286047000.7,N
1525525815.8,286046999.9,N
1525525835.6,286047001.0,N
1525525855.4,286047000.6,N
1525525875.3,286046998.7,N
1525525895.1,286046998.1,N
1525525915.9,286047000.3,N
1525525935.7,286047000.8,N
1525525955.5,286047000.9,N
1525525975.4,286047001.0,N
1525525995.2,286047002.1,N
1525526015.1,286047003.7,Y
1525526016.0,286047003.7,P
1525526035.8,286047003.6,N
1525526055.6,286047003.2,N
1525526075.5,286047001.8,N
1525526095.3,286047002.2,N
1525526115.2,286047002.6,N
1525526135.9,286047002.3,N
1525526155.7,286047002.8,Y
1525526175.6,286046998.5,P
1525526195.4,286046998.1,N
1525526215.3,286047000.6,N
1525526235.1,286047000.7,N
1525526255.8,286047000.4,N
1525526275.7,286047002.6,N
1525526295.5,286047002.7,N
1525526315.3,286047000.4,N
1525526335.2,286046998.9,N
1525526355.0,286046998.3,N
1525526355.9,286046998.3,N
1525526375.8,286047000.7,N
1525526395.6,286046998.8,N
1525526415.4,286046998.7,N
1525526435.3,286047000.0,N
1525526455.1,286047000.4,N
1525526475.9,286047001.1,N
1525526495.7,286047000.1,N
1525526515.5,286047000.0,N
1525526535.4,286047002.8,N
1525526555.2,286047002.8,N
1525526575.0,286047001.8,N
1525526575.9,286047001.8,N
1525526595.8,286047002.2,N
1525526615.6,286047002.2,N
1525526635.4,286046999.9,N
1525526655.3,286047000.1,N
1525526675.1,286047000.0,N
1525526695.9,286047002.6,N
1525526715.7,286047002.0,N
1525526735.5,286047002.5,N
1525526755.4,286047002.7,N
1525526775.2,286047004.0,N
1525526795.1,286047001.5,N
1525526796.0,286047001.5,N
1525526815.8,286047000.0,N
1525526835.6,286047000.7,N
1525526855.5,286047001.2,N
1525526875.3,286047001.1,N
1525526895.1,286047001.0,N
1525526915.9,286047000.9,N
1525526935.7,286047001.1,N
1525526955.6,286047000.9,N
1525526975.4,286047000.0,N
1525526995.2,286047001.1,N
1525527015.1,286047001.2,N
1525527016.0,286047001.2,N
1525527035.8,286046998.7,N
1525527055.6,286046998.1,N
1525527075.5,286046998.8,N
1525527095.3,286047000.6,N
1525527115.2,286047001.6,N
1525527135.9,286047001.7,N
1525527155.7,286046999.8,N
1525527175.6,286047001.6,N
1525527195.4,286047002.0,N
1525527215.2,286047001.9,N
1525527235.1,286047001.5,N
1525527236.0,286047001.5,N
1525527255.8,286047001.4,N
1525527275.7,286047002.1,N
1525527295.5,286047001.4,N
1525527315.3,286047001.3,N
1525527335.2,286047003.9,Y
1525527355.0,286047001.7,P
1525527355.9,286047001.7,P
1525527375.8,286047003.1,P
1525527395.6,286047001.6,N
1525527415.4,286047002.8,Y
1525527435.3,286046999.3,P
1525527455.1,286047001.2,N
1525527475.9,286047000.9,N
1525527495.7,286046999.1,N
1525527515.5,286046998.3,N
1525527535.4,286046996.6,N
1525527555.2,286046999.4,N
1525527575.0,286046996.5,N
1525527575.9,286046996.5,N
1525527595.8,286046998.6,N
1525527615.6,286046998.3,N
1525527635.5,286046998.6,N
1525527655.3,286046998.9,N
1525527675.1,286046999.4,N
1525527695.9,286046998.3,N
1525527715.7,286047001.0,N
1525527735.5,286046998.6,N
1525527755.4,286047000.5,N
1525527775.2,286047000.9,N
1525527795.1,286047001.2,N
1525527796.0,286047001.2,N
1525527815.8,286047000.7,N
1525527835.6,286046999.9,N
1525527855.5,286047000.4,N
1525527875.3,286046998.1,N
1525527895.1,286047000.5,N
1525527915.9,286047000.7,N
1525527935.7,286047000.7,N
1525527955.6,286046998.1,N
1525527975.4,286047002.8,N
1525527995.2,286047000.3,N
1525528015.1,286046998.5,N
1525528016.0,286046998.5,N
1525528035.8,286046998.5,N
1525528055.7,286046998.7,N
1525528075.5,286046999.2,N
1525528095.3,286046998.2,N
1525528115.2,286047001.0,N
1525528135.0,286047001.1,N
1525528135.9,286047001.1,N
1525528155.7,286047001.2,N
1525528175.6,286046998.1,N
1525528195.4,286046998.2,N
1525528215.3,286047000.8,N
1525528235.1,286047000.3,N
1525528236.0,286047000.3,N
1525528255.8,286047002.2,N
1525528275.7,286047000.4,N
1525528295.5,286047000.5,N
1525528315.4,286046999.9,N
1525528335.2,286047002.5,N
1525528355.0,286046999.8,N
1525528355.9,286046999.8,N
1525528375.8,286047002.0,N
1525528395.6,286047004.0,N
1525528415.4,286047003.8,N
1525528435.3,286047002.4,N
1525528455.1,286047002.4,N
1525528475.9,286047002.3,N
1525528495.7,286047002.8,N
1525528515.5,286047004.4,N
1525528535.4,286047003.9,N
1525528555.2,286047001.5,N
1525528575.0,286047002.8,N
1525528575.9,286047002.8,N
1525528595.8,286047002.8,N
1525528615.6,286047002.4,N
1525528635.5,286047002.1,N
1525528655.3,286047002.7,N
1525528675.1,286047002.7,N
1525528695.9,286046999.7,N
1525528715.7,286047002.8,N
1525528735.5,286047000.2,N
1525528755.4,286047000.2,N
1525528775.2,286047000.2,N
1525528795.1,286047000.1,N
1525528796.0,286047000.1,N
